GFSFLT2_sfc_thetae_273.txt.gz
Theta_e
352 356 360 361 361 362 361 360 360 358 358 357 354 354 354 354 356 356 356 355 352 350 349 348 347 347 347 349 351 349 349 352
352 357 359 362 362 361 360 359 360 360 359 358 356 354 354 354 355 355 355 354 352 350 348 347 347 348 350 350 351 352 352 348
351 356 358 362 361 360 361 360 360 359 359 358 358 357 356 355 355 355 354 354 353 351 350 348 349 351 351 352 352 352 353 350
349 352 355 357 358 360 360 360 360 360 359 359 358 358 357 357 356 356 355 355 354 354 354 353 353 353 353 353 354 355 356 353
346 349 347 352 354 354 356 360 360 360 360 359 359 359 358 358 358 358 356 356 356 356 356 355 355 355 355 354 354 354 355 354
341 343 345 347 348 350 352 356 359 358 359 360 359 359 356 351 352 353 356 357 358 358 357 357 357 357 357 357 357 357 356 347
337 340 343 343 345 345 353 353 351 352 352 352 352 352 350 348 346 351 354 357 358 358 358 358 357 358 358 353 351 355 353 348
338 339 341 341 342 341 347 351 349 348 349 348 347 348 347 348 344 350 348 351 351 356 353 354 353 354 352 350 349 345 350 348
339 338 340 340 340 340 346 344 344 344 344 345 345 346 346 342 341 343 348 347 348 349 349 345 345 347 347 346 344 344 344 347
336 339 340 341 341 344 344 341 341 342 341 342 342 345 347 344 341 340 341 345 347 345 344 342 343 344 345 346 348 344 339 341
338 338 343 342 346 346 346 348 341 342 342 341 341 343 344 341 339 341 338 338 337 340 342 344 345 343 346 346 344 345 344 343
346 344 344 347 345 347 346 351 349 345 346 345 344 344 343 344 343 344 341 338 340 339 337 339 338 340 341 343 341 342 344 343
346 347 346 351 349 352 349 352 351 349 350 345 347 348 346 345 343 344 340 338 339 339 338 335 336 336 336 341 341 339 335 338
350 347 347 350 351 353 353 352 351 351 350 349 350 348 348 348 347 343 342 343 343 343 338 336 336 336 338 336 338 331 338 337
347 348 349 351 352 353 352 352 352 348 349 352 351 352 351 350 349 347 343 342 343 340 342 342 339 336 335 330 339 331 335 333
344 344 347 349 349 351 352 349 350 349 351 347 343 344 343 344 347 347 347 344 341 337 336 334 333 329 330 329 326 325 327 331
339 341 344 347 348 347 346 347 349 348 345 342 341 342 341 338 339 339 338 341 340 335 334 332 328 326 327 328 322 318 316 320
336 336 338 342 344 342 345 345 345 346 343 339 340 337 338 337 338 337 337 336 337 337 332 330 329 326 323 326 324 319 314 312
335 337 337 338 338 340 340 341 340 334 333 335 337 336 334 334 334 335 333 332 331 332 331 333 336 332 327 324 325 328 324 320

GFSFLT2_sfc_thetae_276.txt.gz
Theta_e
352 354 361 363 362 360 358 357 356 355 354 353 354 354 354 354 354 356 355 354 352 350 348 348 346 346 347 347 349 350 347 346
352 354 357 362 362 360 358 357 357 356 355 355 354 354 354 354 354 355 354 352 350 349 348 347 346 346 347 349 350 352 353 350
353 354 356 361 361 360 359 359 358 358 358 356 355 354 353 353 353 353 353 353 351 350 348 347 348 349 350 351 353 354 354 352
354 354 354 355 358 360 360 359 359 359 358 358 357 356 355 353 354 354 354 354 353 353 352 351 351 352 353 353 354 354 353 352
352 352 352 352 351 352 354 358 358 359 359 358 357 356 356 355 355 355 354 354 354 354 354 355 355 355 355 354 354 354 354 353
347 350 351 350 350 351 351 355 358 358 358 357 356 357 355 350 351 353 355 355 356 356 356 356 356 356 356 356 356 357 357 349
340 344 348 350 350 350 353 350 350 351 351 352 352 351 349 347 346 351 353 356 357 358 358 357 356 357 357 351 350 352 349 349
337 341 345 347 349 349 349 350 349 348 349 349 349 348 347 348 344 348 347 350 351 356 351 352 351 352 350 349 348 347 345 347
336 338 341 343 344 346 347 349 347 346 346 345 345 344 343 341 340 340 344 345 347 348 348 348 346 345 345 347 346 343 342 345
336 337 339 340 340 341 345 344 344 344 344 344 342 343 344 340 338 337 339 345 345 345 346 344 343 339 342 344 345 345 340 342
337 337 339 339 338 339 343 339 339 341 341 339 339 341 344 342 340 338 335 338 342 343 343 342 340 340 340 343 346 345 343 343
335 337 337 338 340 340 341 339 338 339 339 337 338 339 341 342 339 337 338 335 335 336 336 335 337 337 338 341 341 342 343 343
338 339 339 342 344 342 343 346 346 343 341 341 341 340 341 341 341 340 338 337 337 336 336 334 332 332 335 337 336 336 335 337
343 344 343 344 344 343 344 349 347 348 346 346 344 344 344 343 344 341 342 340 340 340 339 340 338 336 334 331 333 331 335 335
346 347 347 349 349 350 350 349 348 346 345 342 342 342 347 349 349 347 343 341 341 338 334 332 333 332 331 328 337 333 330 332
342 344 345 345 345 347 348 348 348 342 340 340 340 338 338 340 341 341 341 341 337 333 331 330 329 328 328 327 325 324 325 327
337 339 341 341 341 343 345 346 345 340 340 337 336 336 336 337 339 337 337 336 337 334 332 330 327 324 324 326 321 317 315 318
333 335 336 337 338 341 344 345 342 340 336 334 333 332 335 335 336 333 333 333 331 330 329 330 332 328 325 325 326 319 313 311
333 335 334 334 335 338 340 338 337 334 332 333 332 331 330 333 333 333 330 328 328 326 323 326 328 329 327 328 330 327 324 324

GFSFLT2_sfc_thetae_279.txt.gz
Theta_e
352 352 360 362 360 357 356 355 353 352 353 353 353 353 353 353 353 353 352 352 351 349 348 347 346 347 347 347 348 348 345 344
350 353 357 361 360 357 356 355 354 354 353 353 353 354 354 353 353 353 352 351 349 348 347 345 345 345 346 347 348 349 349 349
350 353 356 360 360 358 357 356 355 355 354 353 353 353 353 353 353 352 351 351 349 348 347 347 347 348 350 351 351 352 351 352
351 351 352 354 355 358 358 357 356 355 355 355 355 355 353 353 353 352 352 351 350 350 349 349 350 351 352 353 353 353 352 351
350 351 349 351 351 351 352 356 356 356 355 355 354 353 353 352 352 352 353 353 351 351 352 352 353 354 354 354 353 354 354 354
346 348 351 351 348 349 349 353 356 356 356 356 354 354 353 348 348 350 352 352 353 353 354 355 355 356 355 355 356 356 356 349
342 344 347 348 349 348 351 348 349 349 349 350 350 348 347 345 344 350 352 354 354 355 357 357 356 356 354 350 349 352 347 347
341 344 346 347 347 346 346 346 348 346 345 348 347 346 344 345 342 345 345 346 347 352 350 350 349 348 347 347 348 346 344 343
337 342 346 346 346 345 344 346 345 345 344 345 343 343 341 340 339 339 342 343 343 345 346 346 346 345 345 346 345 344 342 341
334 337 342 345 344 344 340 344 343 343 344 343 341 341 341 338 336 337 338 340 342 344 344 343 344 343 339 340 343 344 342 339
334 334 339 340 341 342 341 341 341 342 341 340 339 340 341 340 338 337 336 336 340 342 343 342 341 339 338 338 340 344 343 341
335 335 337 337 338 338 339 339 335 337 338 337 337 338 340 341 339 338 336 334 334 335 335 335 333 333 333 337 339 341 342 342
335 334 337 339 336 335 338 337 336 336 336 337 336 337 339 340 340 338 338 338 339 336 337 333 334 332 335 334 334 334 334 336
334 334 335 336 338 338 339 340 340 340 341 342 341 340 340 341 344 340 340 340 341 339 335 337 333 334 329 329 332 331 332 333
343 338 338 339 341 341 343 347 346 342 340 341 339 341 346 345 345 342 339 336 336 334 331 330 330 330 327 325 330 331 329 330
343 344 344 344 345 345 345 344 341 337 336 334 335 338 338 338 339 337 338 337 334 332 331 332 328 326 325 325 322 322 323 326
338 339 340 342 343 344 343 342 339 338 334 332 333 334 335 336 336 334 333 332 333 332 331 331 328 325 324 324 320 316 313 317
335 336 336 337 339 342 342 340 338 337 335 330 329 331 332 333 332 331 331 330 328 326 325 324 326 327 324 324 324 324 318 315
333 334 334 334 336 339 340 338 336 333 330 331 328 329 330 331 330 328 324 323 322 321 320 322 321 321 323 319 324 326 321 323

GFSFLT2_sfc_thetae_282.txt.gz
Theta_e
350 350 358 359 357 355 354 352 352 352 352 353 352 351 351 352 353 353 352 351 351 349 348 348 347 347 348 347 347 347 346 345
350 350 356 359 357 355 354 353 353 353 353 353 353 352 352 353 353 353 352 351 349 349 347 346 346 345 345 346 347 348 349 351
348 353 354 358 357 357 355 354 353 353 353 353 354 353 353 353 352 352 351 350 349 348 347 346 346 346 349 349 349 351 350 350
349 352 352 353 354 357 356 355 354 354 353 354 354 354 353 352 352 352 351 350 350 349 349 349 350 351 352 352 352 353 352 352
348 350 350 350 350 350 351 355 355 354 354 353 353 353 353 352 352 351 352 352 351 350 350 351 352 354 354 354 354 354 354 354
345 346 350 351 346 348 349 351 355 355 354 354 352 352 353 348 348 350 350 351 351 352 353 354 355 356 355 355 355 355 355 353
340 344 347 348 349 348 351 349 349 350 350 350 350 349 349 347 346 349 351 352 354 354 355 357 357 356 355 351 350 351 349 348
340 343 344 346 347 346 346 345 347 346 346 350 349 348 347 347 345 347 347 347 348 351 350 351 350 350 349 349 348 347 347 347
339 342 344 346 345 345 343 344 345 345 346 346 346 346 345 344 342 341 342 345 345 346 347 348 348 348 347 348 347 347 346 345
336 341 344 345 344 344 341 343 343 343 344 344 343 344 343 341 340 340 340 341 342 344 345 345 346 346 345 344 343 344 345 346
333 337 342 344 344 342 342 341 341 342 342 342 342 342 343 342 340 339 338 338 339 341 344 345 344 343 342 341 341 344 346 347
333 335 337 341 342 340 341 340 340 340 341 340 341 341 342 342 341 342 340 340 339 339 338 338 337 337 336 341 341 343 344 344
334 332 335 340 339 338 337 339 338 337 338 338 338 339 341 341 342 341 340 341 344 341 342 339 338 340 339 338 337 340 340 340
335 334 334 336 335 335 336 338 338 339 339 342 342 341 340 342 343 341 342 343 342 339 336 339 335 337 333 331 331 338 338 337
335 335 335 335 335 336 337 341 341 340 341 340 340 343 345 345 344 340 338 336 336 335 334 334 331 332 330 328 329 332 333 333
333 333 333 334 337 338 339 341 339 337 335 335 337 338 339 340 341 340 338 336 336 336 334 334 332 330 330 330 328 330 328 328
337 336 337 337 339 340 342 341 340 337 334 333 334 335 334 335 335 334 333 333 334 332 331 333 331 329 329 330 326 322 320 323
337 338 339 340 343 343 342 339 336 333 333 331 331 330 332 331 332 331 330 328 327 326 324 324 327 328 325 328 329 326 320 318
335 337 339 340 342 340 340 336 333 332 328 330 329 330 330 329 326 325 325 324 323 320 320 321 321 321 324 318 325 327 327 325

GFSFLT2_sfc_thetae_285.txt.gz
Theta_e
353 354 358 358 356 354 352 352 352 352 352 352 352 352 352 353 353 353 353 352 351 350 348 348 348 348 348 347 347 347 348 348
352 354 358 356 356 355 353 353 352 352 354 355 351 351 352 353 353 353 352 351 350 349 348 346 346 345 346 346 347 348 349 351
352 354 357 357 357 356 354 353 353 354 354 354 353 352 353 353 353 352 351 350 348 348 346 346 345 345 346 347 349 350 350 350
352 353 356 356 357 356 355 354 353 353 354 355 355 355 353 353 352 352 350 349 349 348 348 348 349 350 350 351 351 352 352 352
351 352 354 356 352 353 354 355 354 353 353 354 353 353 353 352 352 351 351 350 350 350 350 351 352 353 353 354 355 354 354 355
347 351 353 353 354 352 351 354 353 354 353 353 353 353 352 349 349 349 351 350 350 351 353 354 355 355 355 356 354 354 353 349
344 347 350 352 353 352 349 353 353 352 352 352 352 352 350 350 349 348 349 351 353 354 355 355 356 355 355 354 354 353 351 350
342 346 348 352 353 351 348 351 351 351 352 353 354 353 353 349 350 349 349 349 351 352 353 354 354 354 354 354 352 353 353 352
342 345 348 350 351 351 350 350 350 350 351 350 351 354 352 350 350 348 346 348 351 354 353 352 352 355 355 355 353 351 350 352
340 344 347 350 350 349 348 349 350 349 349 350 350 352 351 349 349 348 347 346 348 350 349 350 352 353 353 351 350 349 350 353
339 343 346 348 350 350 349 350 349 349 350 350 349 350 352 350 349 346 346 346 348 349 349 350 351 351 349 348 347 351 352 353
339 344 346 348 350 350 350 350 349 349 348 348 348 351 351 351 349 350 347 349 349 350 350 349 349 349 347 348 350 350 351 351
342 342 346 345 348 349 349 349 348 348 348 348 347 348 349 349 350 350 349 349 351 351 352 352 350 348 348 346 346 347 348 349
345 344 344 346 345 347 349 348 349 349 347 348 349 350 351 350 350 350 349 351 353 351 350 350 346 342 339 337 336 337 343 344
345 346 345 345 347 348 347 347 347 348 349 353 353 354 356 354 350 351 349 344 343 342 342 343 343 342 339 337 335 336 340 340
345 346 346 345 347 345 342 342 343 344 345 346 347 350 352 352 350 349 345 346 347 346 344 346 345 341 342 339 335 334 338 339
343 346 346 347 346 345 343 345 345 346 344 343 344 346 349 348 349 347 346 344 343 341 341 340 342 339 338 337 331 331 326 332
344 342 344 347 346 347 350 348 344 341 339 338 338 338 337 341 339 339 337 336 335 333 331 333 334 335 328 334 334 328 322 320
346 345 345 347 348 349 351 346 344 343 340 338 334 335 335 336 336 335 332 331 331 329 330 328 328 328 328 324 332 330 330 330

GFSFLT2_sfc_thetae_288.txt.gz
Theta_e
351 357 356 358 355 353 353 353 352 352 353 353 353 353 353 353 353 353 353 353 352 350 349 348 347 347 347 346 347 347 348 350
350 356 356 358 354 353 353 353 352 352 353 353 353 353 354 354 353 353 353 351 350 349 348 346 345 345 345 346 347 348 349 350
350 356 357 357 356 355 354 353 354 354 354 353 353 353 354 353 353 352 351 350 349 348 346 345 345 346 346 348 349 350 351 351
351 354 357 354 357 355 354 354 354 354 354 354 353 353 353 353 352 352 351 349 348 348 347 347 348 350 351 351 352 352 352 353
349 351 353 354 351 352 353 354 354 354 354 353 353 353 353 352 352 352 351 350 349 349 349 351 351 353 353 354 353 354 354 355
346 349 351 350 349 348 349 353 353 353 354 354 354 353 352 350 350 352 352 348 349 350 351 353 354 355 356 357 357 355 354 352
342 346 349 350 350 348 347 353 352 350 350 351 350 353 350 349 349 347 350 350 351 353 354 355 356 356 356 353 354 355 355 352
341 345 347 353 354 349 346 349 349 349 350 352 353 353 352 348 348 345 346 348 349 353 353 355 355 354 352 354 352 352 353 353
339 343 347 352 356 353 348 348 349 348 350 350 352 355 352 350 349 348 344 348 352 353 354 354 351 354 356 356 353 352 350 349
339 343 346 351 355 355 354 350 349 349 348 349 351 353 350 348 348 347 346 346 348 352 352 350 350 351 351 350 348 348 349 350
342 343 346 349 355 354 354 353 349 350 349 349 349 349 352 350 349 347 347 346 347 350 350 351 350 351 350 350 350 350 351 351
343 346 348 350 353 354 353 353 351 348 347 349 349 353 353 354 353 352 349 351 352 353 353 353 352 354 352 352 352 352 351 352
344 346 350 348 349 354 352 352 348 348 348 349 350 351 352 352 354 354 351 352 355 355 353 353 352 351 349 350 349 348 349 350
348 347 350 352 349 352 354 351 350 351 349 349 350 351 354 354 353 355 354 355 358 354 353 352 351 350 347 346 344 345 346 348
351 352 352 351 353 354 352 351 347 347 347 349 352 354 358 358 357 357 355 357 355 352 350 351 351 351 347 345 342 341 344 345
351 353 354 353 358 353 349 346 343 343 349 352 355 359 359 360 359 359 355 355 353 351 353 354 351 347 344 345 338 336 336 343
351 353 354 355 356 355 350 348 346 347 349 352 355 358 358 357 355 355 355 353 353 349 349 348 346 342 342 340 331 328 325 328
348 351 353 355 356 356 358 350 350 351 351 349 350 349 350 352 350 351 351 351 349 346 342 342 339 336 330 337 334 326 319 319
351 352 354 355 356 355 356 354 356 347 344 348 350 348 347 348 346 345 342 341 341 338 336 333 333 332 331 325 332 331 332 329

GFSFLT2_sfc_thetae_291.txt.gz
Theta_e
350 355 356 357 355 353 354 353 353 353 353 353 353 353 353 353 353 353 353 352 352 350 349 348 347 347 347 347 347 348 350 352
350 353 355 356 354 353 354 353 353 353 353 353 354 353 354 353 353 353 353 352 349 348 347 346 345 345 345 347 348 349 350 352
351 351 354 356 356 355 354 353 354 355 355 354 354 354 354 353 353 353 352 351 349 348 346 346 345 347 348 349 350 351 351 352
351 351 351 351 355 354 355 354 354 354 354 354 353 354 353 353 353 352 351 350 349 348 347 347 348 350 351 352 353 353 353 354
348 350 349 350 349 349 352 354 354 354 354 353 354 354 353 353 353 352 352 351 350 350 350 350 351 352 353 355 356 356 354 355
343 348 348 346 347 346 346 352 354 354 354 354 353 354 352 349 350 352 352 352 350 350 351 352 353 355 357 357 357 357 357 351
339 344 346 346 346 345 346 351 349 349 350 350 349 352 350 349 349 347 353 352 350 351 354 355 357 357 357 354 354 357 356 352
339 342 345 347 349 345 345 349 347 347 347 349 351 354 350 347 347 343 342 347 347 348 351 351 355 356 355 351 348 349 348 346
338 341 344 348 351 349 345 347 347 346 347 348 350 354 352 350 348 346 343 344 348 349 350 352 348 350 351 351 350 348 347 347
337 340 343 348 353 352 350 347 347 346 347 348 350 352 349 348 347 346 345 344 344 346 349 348 349 349 350 349 348 349 347 349
340 341 343 347 355 353 354 353 348 349 348 348 348 348 351 350 350 346 348 348 346 347 349 350 352 352 351 351 352 355 352 352
343 345 345 348 354 356 354 353 351 348 346 348 349 352 352 354 354 354 351 351 353 355 354 354 353 353 353 352 355 352 351 354
346 350 350 347 350 355 355 353 348 347 346 349 351 351 354 354 357 358 353 353 355 356 355 353 355 352 350 350 349 349 348 351
349 350 354 354 349 353 358 352 353 357 349 350 353 352 356 355 355 356 354 355 361 356 355 353 352 358 350 350 347 349 348 347
349 355 358 356 362 361 355 354 349 346 348 349 352 353 357 357 357 357 357 362 360 355 353 353 354 353 349 349 344 343 346 346
355 357 358 359 363 358 352 348 346 344 347 346 350 357 360 361 361 362 359 359 357 358 355 355 351 352 345 351 339 336 333 343
357 360 362 361 365 362 356 356 351 349 348 351 355 360 361 362 362 359 358 356 356 351 352 349 348 343 342 340 332 326 322 325
355 360 359 364 365 363 361 359 358 354 354 351 355 357 359 358 358 358 357 354 354 352 346 345 341 338 330 332 337 326 320 318
351 354 360 364 367 365 367 357 358 347 346 352 354 355 354 355 354 354 354 352 349 344 342 336 334 334 331 325 325 328 331 328